Location: Platte
(43.3870°N, 98.8440°W)
Time: 11:04:42
(UTC-05:00)

Landsat 7 - Visible Passes

Search period start: 29 June 2017 00:00
Search period end: 09 July 2017 00:00
Orbit: 702 x 703 km, 98.2° (Epoch: 28 June)

Date Brightness Start Highest point End Pass type
(mag) Time Alt. Az. Time Alt. Az. Time Alt. Az.
29 Jun 5.5 00:14:00 17° SW 00:16:22 25° W 00:20:17 10° NW visible
29 Jun 3.8 23:18:23 25° SSE 23:21:11 86° WSW 23:25:58 10° NNW visible
30 Jun 5.0 22:22:47 12° ESE 22:26:26 29° ENE 22:30:29 10° N visible
01 Jul 5.1 00:01:40 21° SW 00:04:04 32° W 00:08:22 10° NNW visible
01 Jul 3.8 23:06:03 23° SSE 23:08:59 72° ENE 23:13:44 10° N visible
02 Jul 6.2 00:45:11 10° WSW 00:47:14 13° W 00:49:17 10° WNW visible
02 Jul 5.3 22:10:40 10° ESE 22:14:20 22° ENE 22:18:00 10° NNE visible
02 Jul 4.7 23:49:20 24° SSW 23:51:47 43° W 23:56:20 10° NNW visible
03 Jul 4.1 22:53:43 20° SE 22:56:47 55° ENE 23:01:27 10° N visible
04 Jul 6.0 00:32:37 13° WSW 00:34:53 17° W 00:37:55 10° NW visible
04 Jul 5.6 21:59:06 10° ESE 22:02:14 18° ENE 22:05:23 10° NNE visible
04 Jul 4.2 23:37:00 26° S 23:39:32 57° W 23:44:14 10° NNW visible
05 Jul 4.5 22:41:24 17° SE 22:44:38 42° ENE 22:49:07 10° N visible
06 Jul 5.7 00:20:17 16° SW 00:22:32 22° W 00:26:13 10° NW visible
06 Jul 5.9 21:47:48 10° E 21:50:10 14° ENE 21:52:34 10° NNE visible
06 Jul 3.9 23:24:41 27° S 23:27:18 76° WSW 23:32:05 10° NNW visible
07 Jul 4.8 22:29:05 14° SE 22:32:30 32° ENE 22:36:43 10° N visible
08 Jul 5.3 00:07:59 20° SW 00:10:13 28° W 00:14:21 10° NW visible
08 Jul 3.8 23:12:23 26° SSE 23:15:05 83° ENE 23:19:52 10° NNW visible
